Weather in Mokhovo

Russia / Kemerovo Oblast     54°35′14″N   86°20′52″E
temp.,
°C
wind,
m/s
gust,
m/s
humid.,
%
clouds,
%
prec.,
mm/h
press.,
hPa
HPBL,
m
2 march, tue
tue201:00−2wsw3797100 1.8 1009369
04:00−6nw2297100 1.3 100970
07:00−8nw3596100 2.3 1010179
10:00−9nw4695100 0.9 1011268
13:00−9nw3594100 1.1 1014266
16:00−9nw3595100 0.4 1014322
19:00−12n239799 0.7 101635
22:00−15ssw009882 0.1 101720
3 march, wed
wed301:00−17s119984 0.1 101720
04:00−17ese00100100 0.1 101720
07:00−18sw1199100 0.1 101820
10:00−15n009599 0.0 101955
13:00−11ssw128899 0.1 1019292
16:00−8e1187100 0.1 1020314
19:00−9sw3594100 0.2 1022143
22:00−12ssw349489 0.1 102466
4 march, thu
thu401:00−12ssw359391 0.2 1026111
04:00−14s479187 0.0 1026107
07:00−16sse469162 0.0 1027104
10:00−11s5128685 0.0 1026775
13:00−6ssw7128093 0.1 1024887
16:00−5ssw71282100 0.0 1022781
19:00−6s61384100 0.0 1022553
22:00−6s51383100 0.0 1021467
5 march, fri
fri501:00−7ssw5137893 0.0 1020360
04:00−7s5128083 0.0 1018235
07:00−8s5108090 0.0 1017192
10:00−5sse41181100 0.0 1014283
13:00−3ssw81485100 0.0 1013892
16:00−2sw101684100 0.1 10151219
19:00−4wsw7167781 0.2 1020686
22:00−6sw6168267 0.0 1022679
6 march, sat
sat601:00−5ssw6168283 0.0 1022926
04:00−6sw61680100 0.0 10221055
07:00−6sw51682100 0.0 1021940
10:00−4sw81874100 0.0 1020982
13:00−3sw101872100 0.0 10191072
16:00−2sw81771100 0.0 10171150
19:00−4ssw51676100 0.0 1015911
22:00−4sw51680100 0.0 1015958